Regional Weather Roundup
Issued by NWS

Home | Current Version | Previous Version | Text Only | Print | Product List | Glossary Off
Versions: 1 2 3 4 5 6 7 8 9 10 11 12 13 14 15 16 17 18 19 20 21 22 23 24 25 26 27 28 29 30 31 32 33 34 35 36 37 38 39 40 41 42 43 44 45 46 47 48 49 50

000
ASUS45 KBOU 281707
RWRCO

WEATHER ROUNDUP FOR COLORADO
NATIONAL WEATHER SERVICE DENVER/BOULDER CO
1000 AM MST WED JAN 28 2015

NOTE: "FAIR" INDICATES FEW OR NO CLOUDS BELOW 12000 FEET WITH NO
SIGNIFICANT WEATHER AND/OR OBSTRUCTIONS TO VISIBILITY.

COZ001>005-013-030-031-281800-
...NORTHWEST COLORADO...

CITY           SKY/WX    TMP DP  RH WIND       PRES   REMARKS
CRAIG          CLOUDY    35  32  88 N5        30.26R WCI  31
HAYDEN         CLOUDY    37  28  70 CALM      30.26R
MEEKER         PTSUNNY   39  29  67 NE3       30.28R
MOUNT WERNER   NOT AVBL
STEAMBOAT SPGS CLOUDY    35  29  80 CALM      30.26R
WALDEN         CLOUDY    36  25  64 E3        30.20S
$$

COZ006>008-011-281800-
...WEST CENTRAL VALLEYS...

CITY           SKY/WX    TMP DP  RH WIND       PRES   REMARKS
GRAND JUNCTION SUNNY     38  29  70 S3        30.31R
MONTROSE       MOSUNNY   39  29  67 CALM      30.33R
EAGLE          MOSUNNY   39  28  65 CALM      30.29R
RIFLE          PTSUNNY   33  28  81 CALM      30.31R
DELTA          SUNNY     37  29  72 CALM      30.32R
NUCLA          PTSUNNY   43  32  65 CALM      30.35R
$$

COZ017>023-064>068-281800-
...SOUTHWEST COLORADO...

CITY           SKY/WX    TMP DP  RH WIND       PRES   REMARKS
DURANGO        SUNNY     36  29  75 SE3       30.31R
CORTEZ         SUNNY     42  33  70 NE3       30.31S
PAGOSA SPRINGS SUNNY     39  29  66 CALM      30.32R
TELLURIDE      SUNNY     36  26  67 CALM      30.35R
WOLF CREEK PAS NOT AVBL
$$

COZ009-010-012-014-032>034-037-058>063-281800-
...CENTRAL COLORADO...

CITY           SKY/WX    TMP DP  RH WIND       PRES   REMARKS
ASPEN          MOSUNNY   34  24  67 CALM      30.28R
BUENA VISTA    SUNNY     41  19  40 W20G38    30.21R
COPPER MTN     CLOUDY    25  19  80 W14G20    30.28R WCI  13
BERTHOUD PASS  CLOUDY    18  12  79 W51G64    30.17F WCI  -6
COTTONWOOD PAS CLOUDY    37  19  48 W16G24    30.24R
GUNNISON       SUNNY     16   7  67 S3        30.35R
KREMMLING      CLOUDY    37  23  56 W12       30.25R
LEADVILLE      MOSUNNY   29  16  58 W12G20    30.25R WCI  19
MONARCH PASS   CLOUDY    21  21 100 MISG      30.37R
SALIDA         SUNNY     48  21  34 SW17G24   30.29R
SUNLIGHT       CLOUDY    30  27  86 CALM        N/A
WILKERSON PASS SUNNY     28  14  54 W8G18     30.24R WCI  20
$$

COZ069>075-281800-
...SAN LUIS VALLEY/SANGRE DE CRISTO MOUNTAINS...

CITY           SKY/WX    TMP DP  RH WIND       PRES   REMARKS
ALAMOSA        SUNNY     40  25  55 S3        30.26S
LA VETA PASS   NOT AVBL
SAGUACHE       MOSUNNY   36  27  69 E6        30.27S
$$

COZ035-036-038>040-281800-
...NORTHERN COLORADO FRONT RANGE...

CITY           SKY/WX    TMP DP  RH WIND       PRES   REMARKS
DENVER INTL AP MOSUNNY   56  20  24 W15G22    30.08R
DMNS CITY PARK   N/A     55  17  21 NW16G29   30.08S
AURORA         MOSUNNY   53  19  25 NW23G31   30.09R
FRONT RANGE AP MOSUNNY   55  25  30 NW10      30.09R
ERIE MUNI ARPT MOSUNNY   58  19  22 W17G23    30.09R
BOULDER MUN AP MOSUNNY   54  21  28 W13G21    30.08R
CENTENNIAL     MOSUNNY   52  19  27 NW10      30.09S
BROOMFIELD     MOSUNNY   55  19  24 W33G51    30.09R
FORT COLLINS   SUNNY     55  23  28 W24G32    30.08R
LONGMONT       SUNNY     59  21  22 W29G38    30.08R
$$

COZ041-046-047-076>085-087-088-281800-
...PIKES PEAK/PALMER DIVIDE AND SOUTHERN FOOTHILLS...

CITY           SKY/WX    TMP DP  RH WIND       PRES   REMARKS
COLO. SPRINGS  MOSUNNY   54  18  24 NW21G26   30.09R
A. F. ACADEMY  SUNNY     51  14  22 NW8G21    30.11R
ELLICOTT       SUNNY    N/A N/A N/A NW21      30.08R
FALCON         SUNNY     50  14  24 NW20      30.12R
FORT CARSON    SUNNY     53  22  30 NE3       30.07R
LIMON          SUNNY     53  23  31 NW20      30.06R
MONUMENT HILL  SUNNY     46  18  31 NW15G21   30.11R
TRINIDAD       SUNNY     53  29  39 S6        30.10R
$$

COZ042>045-048>051-090-091-281800-
...NORTHEAST COLORADO...

CITY           SKY/WX    TMP DP  RH WIND       PRES   REMARKS
GREELEY ARPT   SUNNY     55  30  38 NW20G32   30.05R
AKRON          SUNNY     51  31  46 NW20G28   30.01R
BURLINGTON     PTSUNNY   53  33  46 NW15      30.00R
WRAY           PTSUNNY   59  32  35 W21G26    29.97R
STERLING       SUNNY     61  32  33 NW26G38   29.98R
HOLYOKE        PTSUNNY   59  32  36 NW22G33   29.96R
FORT MORGAN    SUNNY     56  27  32 NW25G32   30.03R
$$

COZ086-089-092>099-281800-
...SOUTHEAST COLORADO...

CITY           SKY/WX    TMP DP  RH WIND       PRES   REMARKS
PUEBLO         SUNNY     61  21  21 NW18G29   30.06R
LA JUNTA       SUNNY     60  29  30 W10       30.04R
LAMAR          PTSUNNY   52  32  46 NW3       30.02R
SPRINGFIELD      N/A     62  25  24 NW20G28   30.03R
$$


USA.gov is the U.S. government's official web portal to all federal, state and local government web resources and services.